Zurück zum Katalog

LEMUR-2 FIKRETDENGIZ

AktivWissenschaftSSO
NORAD 67363·PAYLOAD·🇺🇸 United States

Gestartet Jan 11, 2026 von Vandenberg Space Force Base

Loading…

Nächste Überflüge (nächste 24 Stunden)

TLE

AktuellSource: Space-Track

Epoche: Sep 14, 2026, 11:11 UTC

1 67363U 26004A   26257.46653878  .00003160  00000-0  34252-3 0  9995
2 67363  97.8083 254.7183 0007971 195.4172 164.6804 14.88890026 36560

Verfolge LEMUR-2 FIKRETDENGIZ in Echtzeit mit AllMySat

Download on the App Store